[[{"header":{"parameterUnit":"m.s-1","parameterCategory":1,"la1":30.2991,"la2":30.254,"lo1":-89.0895,"lo2":-89.0444,"dy":0.0017,"dx":0.0017,"nx":28,"ny":28,"refTime":"2024-10-08T21:00:00:Z","depth":0,"parameterNumber":2,"parameterNumberName":"U-component_of_WINDS"},"data":[0,0,0,0,0,0,0,0,0,0,0,0,0,0,0,0,0,0,0,0,0,0,0,0,0,0,0,0,0,0,0,0,0,0,0,0,0,0,0,0,0,0,0,0,0,0,0,0,0,0,0,0,0,0,0,0,0,0,0.251,0.251,0,0.25,0.25,0.25,0.2505,0.2506,0.2506,0.2506,0.2494,0.2494,0.2493,0,0,0,0,0,0,0,0,0,0,0,0,0,0.2535,0.2535,0.251,0.251,0.251,0.25,0.25,0.25,0.2505,0.2506,0.2506,0.2506,0.2495,0.2494,0.2493,0,0,0,0,0,0,0,0,0,0,0,0,0,0.2525,0.2535,0.251,0.2512,0.2512,0.25,0.25,0.25,0.2505,0.2506,0.2506,0.2506,0.2495,0.2494,0.2493,0.2479,0,0,0.249,0.249,0,0,0,0,0,0,0,0,0.2525,0.2524,0.2512,0.2512,0.2512,0.2504,0.2504,0.2493,0.2505,0.2508,0.2506,0.2507,0.2497,0.2496,0.2493,0.2478,0.2478,0.249,0.249,0.2489,0.2489,0,0,0,0,0,0,0,0.2526,0.2524,0.2506,0.2512,0.2511,0.2513,0.2512,0.2502,0.25,0.2507,0.2508,0.2507,0.2497,0.2494,0.2493,0.2478,0.249,0.249,0.2489,0.2489,0.2452,0.2451,0,0,0,0,0,0,0.2527,0.2525,0.2507,0.2506,0.252,0.2512,0.2511,0.2506,0.25,0.25,0.2506,0.2507,0.2495,0.2494,0.2493,0.2476,0.2489,0.2489,0.2488,0.2452,0.2452,0.2451,0,0,0,0,0,0,0.2527,0.2525,0.2507,0.2515,0.2513,0.2511,0.2506,0.2506,0.2503,0.2499,0.2499,0.2503,0.2496,0.2494,0.2483,0.2476,0.2488,0.2487,0.2453,0.2452,0.2451,0.2443,0,0,0,0,0,0,0.2528,0.2525,0.252,0.2515,0.2513,0.2497,0.2506,0.2505,0.2501,0.2502,0.2496,0.2496,0.2496,0.2484,0.2482,0.2475,0.2487,0.2453,0.2452,0.2452,0.2443,0.2442,0.244,0,0,0,0,0,0.2529,0.2517,0.2519,0.2517,0.2506,0.2497,0.2495,0.2496,0.2501,0.2495,0.2493,0.2496,0.2477,0.2483,0.248,0.2473,0.2454,0.2453,0.2452,0.2444,0.2442,0.244,0,0,0,0,0,0,0.252,0.2516,0.2519,0.2506,0.2501,0.2498,0.249,0.2493,0.2487,0.2488,0.2489,0.2487,0.2476,0.2473,0.248,0.246,0.2466,0.2465,0.2461,0.2459,0.2458,0.2458,0.2486,0,0,0,0,0,0.2516,0.2509,0.2507,0.2495,0.2493,0.2492,0.2488,0.2489,0.2485,0.2483,0.248,0.2476,0.2469,0.2464,0.2457,0.2444,0.2443,0.2438,0.2436,0.2435,0.2433,0.2426,0.2424,0.2448,0.2448,0.2448,0,0,0.2509,0.2506,0.2502,0.2494,0.249,0.2483,0.2491,0.2482,0.2477,0.2481,0.2471,0.2469,0.2464,0.2451,0.2446,0.2449,0.2426,0.2433,0.2432,0.2431,0.2425,0.2422,0.242,0.2447,0.2447,0.2447,0,0,0.2492,0.2489,0.248,0.2477,0.2472,0.2472,0.247,0.2466,0.2465,0.2455,0.2458,0.2452,0.244,0.2436,0.2433,0.2416,0.2419,0.2414,0.2405,0.2398,0.2396,0.2395,0.2389,0.2387,0.2413,0.2413,0.2413,0,0.2483,0.2472,0.2474,0.2466,0.2462,0.2467,0.2458,0.2455,0.2448,0.2446,0.245,0.2435,0.2432,0.2419,0.2415,0.2413,0.241,0.2414,0.2397,0.2395,0.2393,0.2388,0.2385,0.2412,0.2412,0.2412,0.2412,0,0.2462,0.2454,0.2447,0.2442,0.2437,0.2428,0.2429,0.2425,0.2426,0.2426,0.2416,0.2412,0.2406,0.2403,0.2404,0.239,0.2393,0.2397,0.2403,0.2391,0.2385,0.2383,0.2411,0.2411,0.2412,0.2412,0,0,0.2437,0.2434,0.2431,0.2429,0.2425,0.2419,0.2411,0.2405,0.2401,0.2397,0.239,0.2381,0.2385,0.2381,0.2382,0.2377,0.2364,0.2382,0.2381,0.2378,0.2349,0.2346,0.2343,0.2366,0.2366,0.2365,0.2349,0,0.2419,0.2405,0.2407,0.2393,0.2387,0.2392,0.2385,0.2382,0.2382,0.2376,0.2376,0.2369,0.2375,0.2373,0.2368,0.2367,0.2358,0.2368,0.2359,0.2359,0.236,0.234,0.2336,0.2321,0.2347,0.2347,0.2347,0,0.2396,0.2392,0.2378,0.2376,0.2373,0.2367,0.2362,0.2357,0.2354,0.2354,0.2351,0.2354,0.2346,0.2353,0.2342,0.2349,0.2346,0.2345,0.2345,0.2343,0.2351,0.2338,0.2316,0.2314,0.2343,0.2344,0.2344,0,0.2379,0.237,0.2361,0.2359,0.2357,0.2352,0.2351,0.2349,0.2345,0.2341,0.2339,0.2334,0.2331,0.2327,0.2329,0.2334,0.2318,0.2325,0.2317,0.2317,0.2313,0.2313,0.229,0.2312,0.2312,0.2312,0.2312,0,0.2359,0.235,0.2353,0.2347,0.2337,0.2341,0.2331,0.2331,0.2329,0.2323,0.2328,0.2322,0.2324,0.2319,0.232,0.2311,0.231,0.231,0.231,0.2309,0.2309,0.2306,0.2307,0.2311,0.2311,0.2312,0.2312,0,0.2337,0.2339,0.2329,0.2329,0.2329,0.2322,0.2321,0.2316,0.2317,0.2309,0.2308,0.2309,0.2303,0.2304,0.2298,0.2298,0.2287,0.2289,0.2288,0.2288,0.228,0.2281,0.2254,0.2251,0.2275,0.2275,0.2275,0,0.2324,0.2317,0.2316,0.2313,0.2312,0.2306,0.2303,0.2307,0.2303,0.2301,0.2296,0.229,0.2286,0.2277,0.2277,0.2272,0.2273,0.2265,0.2273,0.2272,0.2273,0.2273,0.2273,0.2263,0.2262,0.2262,0.2262,0,0.2299,0.2301,0.2297,0.2293,0.2289,0.2287,0.2284,0.2281,0.2284,0.228,0.2275,0.2272,0.2266,0.2261,0.2257,0.2255,0.2259,0.226,0.2258,0.2256,0.2256,0.2255,0.2283,0.226,0.226,0.226,0.226,0.226,0.2281,0.2276,0.2275,0.227,0.2269,0.2267,0.2262,0.2263,0.2258,0.2254,0.2256,0.225,0.2249,0.2244,0.2242,0.2237,0.2241,0.2238,0.2237,0.2236,0.2235,0.2257,0.2237,0.2237,0.2237,0.2237,0.2237,0,0.2257,0.2257,0.2253,0.2249,0.2246,0.2251,0.2249,0.2245,0.224,0.2238,0.2235,0.2229,0.2224,0.2225,0.222,0.2217,0.2218,0.2215,0.2215,0.2215,0.2232,0.2234,0.2214,0.2214,0.2214,0.2214,0.2214,0.2214,0.2243,0.2235,0.2237,0.2228,0.2228,0.2222,0.2221,0.2219,0.2218,0.2211,0.2208,0.2209,0.2208,0.2204,0.22,0.2201,0.2199,0.2195,0.2196,0.2211,0.2214,0.2216,0.2218,0.2195,0.2195,0.2179,0.2179,0.2179]},{"header":{"parameterUnit":"m.s-1","parameterCategory":1,"la1":30.2991,"la2":30.254,"lo1":-89.0895,"lo2":-89.0444,"dy":0.0017,"dx":0.0017,"nx":28,"ny":28,"refTime":"2024-10-08T21:00:00:Z","depth":0,"parameterNumber":3,"parameterNumberName":"V-component_of_WINDS"},"data":[0,0,0,0,0,0,0,0,0,0,0,0,0,0,0,0,0,0,0,0,0,0,0,0,0,0,0,0,0,0,0,0,0,0,0,0,0,0,0,0,0,0,0,0,0,0,0,0,0,0,0,0,0,0,0,0,0,0,-4.8023,-4.8023,0,-4.8103,-4.8104,-4.8105,-4.8053,-4.8051,-4.8048,-4.8046,-4.8123,-4.8127,-4.8131,0,0,0,0,0,0,0,0,0,0,0,0,0,-4.7818,-4.7822,-4.8022,-4.8023,-4.8025,-4.8103,-4.8104,-4.8105,-4.8054,-4.8051,-4.8048,-4.8045,-4.8122,-4.8127,-4.8132,0,0,0,0,0,0,0,0,0,0,0,0,0,-4.7904,-4.7824,-4.8022,-4.8008,-4.8008,-4.8103,-4.8104,-4.8106,-4.8054,-4.8051,-4.8047,-4.8044,-4.812,-4.8126,-4.8132,-4.8244,0,0,-4.8152,-4.8155,0,0,0,0,0,0,0,0,-4.7899,-4.7911,-4.8009,-4.8009,-4.8009,-4.8065,-4.806,-4.8152,-4.8055,-4.8036,-4.8046,-4.8042,-4.8106,-4.8113,-4.8136,-4.8248,-4.8251,-4.8153,-4.8157,-4.8159,-4.8161,0,0,0,0,0,0,0,-4.7893,-4.7907,-4.8054,-4.8011,-4.8011,-4.7996,-4.8005,-4.8078,-4.809,-4.8038,-4.8034,-4.8045,-4.8105,-4.813,-4.8138,-4.8252,-4.8152,-4.8158,-4.8162,-4.8165,-4.846,-4.8464,0,0,0,0,0,0,-4.7889,-4.7903,-4.8052,-4.8057,-4.7944,-4.8003,-4.8012,-4.805,-4.8089,-4.8092,-4.8048,-4.8042,-4.8121,-4.813,-4.814,-4.8274,-4.8159,-4.8165,-4.8169,-4.8456,-4.8461,-4.8465,0,0,0,0,0,0,-4.7885,-4.7903,-4.8048,-4.7979,-4.7996,-4.801,-4.8054,-4.8054,-4.8079,-4.8097,-4.8098,-4.8071,-4.8119,-4.8131,-4.8219,-4.8276,-4.8168,-4.8174,-4.8451,-4.8457,-4.8463,-4.8543,0,0,0,0,0,0,-4.7879,-4.7902,-4.7945,-4.798,-4.8,-4.8128,-4.8057,-4.8058,-4.8091,-4.8084,-4.8119,-4.8122,-4.8117,-4.821,-4.8226,-4.8283,-4.8179,-4.8446,-4.8454,-4.8461,-4.8535,-4.8551,-4.8564,0,0,0,0,0,-4.7872,-4.7963,-4.7948,-4.7966,-4.8055,-4.8131,-4.8142,-4.8136,-4.8095,-4.8139,-4.8151,-4.8121,-4.8267,-4.8219,-4.8237,-4.8297,-4.8443,-4.8452,-4.846,-4.8529,-4.8548,-4.8564,0,0,0,0,0,0,-4.7932,-4.7967,-4.7951,-4.8056,-4.8091,-4.8122,-4.8177,-4.8157,-4.8203,-4.8194,-4.8183,-4.8191,-4.8284,-4.8299,-4.8245,-4.8407,-4.8348,-4.8361,-4.8394,-4.8412,-4.8427,-4.8421,-4.8184,0,0,0,0,0,-4.7957,-4.8018,-4.8045,-4.8135,-4.8154,-4.8163,-4.8195,-4.8188,-4.8223,-4.8237,-4.8255,-4.8289,-4.8343,-4.8378,-4.8429,-4.8537,-4.8544,-4.8587,-4.8601,-4.8613,-4.8624,-4.8683,-4.8703,-4.8495,-4.8494,-4.8494,0,0,-4.801,-4.8037,-4.8076,-4.8148,-4.8174,-4.8236,-4.8175,-4.8242,-4.8288,-4.8246,-4.8332,-4.8347,-4.8383,-4.8483,-4.8527,-4.8498,-4.8684,-4.8625,-4.8634,-4.8639,-4.8695,-4.8714,-4.8732,-4.8501,-4.85,-4.8499,0,0,-4.8138,-4.8165,-4.8244,-4.8272,-4.8314,-4.832,-4.8339,-4.8374,-4.8383,-4.8469,-4.8439,-4.8492,-4.8585,-4.8613,-4.8639,-4.878,-4.8754,-4.8796,-4.8872,-4.893,-4.8946,-4.8961,-4.9011,-4.903,-4.8807,-4.8808,-4.8808,0,-4.8198,-4.8292,-4.8286,-4.8357,-4.8389,-4.8358,-4.8437,-4.8464,-4.8519,-4.8542,-4.8509,-4.8626,-4.8648,-4.8754,-4.8789,-4.8811,-4.8832,-4.8792,-4.8945,-4.8959,-4.8973,-4.9021,-4.904,-4.8813,-4.8812,-4.8811,-4.8811,0,-4.8364,-4.8429,-4.8487,-4.8545,-4.8584,-4.8658,-4.8662,-4.8702,-4.8692,-4.87,-4.8788,-4.8814,-4.887,-4.8895,-4.8884,-4.8999,-4.898,-4.8946,-4.8887,-4.8998,-4.9043,-4.9061,-4.882,-4.8818,-4.8816,-4.8815,0,0,-4.853,-4.8586,-4.8607,-4.8634,-4.8678,-4.8728,-4.88,-4.8857,-4.8892,-4.8931,-4.8991,-4.9072,-4.9041,-4.9071,-4.9063,-4.9114,-4.9225,-4.9074,-4.9075,-4.9102,-4.9354,-4.938,-4.9401,-4.9208,-4.9212,-4.9215,-4.9351,0,-4.8662,-4.8792,-4.8789,-4.8909,-4.8969,-4.8941,-4.9004,-4.9037,-4.9048,-4.9099,-4.9109,-4.9167,-4.9122,-4.914,-4.9189,-4.9201,-4.9276,-4.9191,-4.9263,-4.9266,-4.9256,-4.9425,-4.9452,-4.9579,-4.9369,-4.9372,-4.9374,0,-4.8832,-4.8881,-4.9007,-4.9045,-4.907,-4.9127,-4.918,-4.9229,-4.9267,-4.927,-4.9305,-4.929,-4.9363,-4.9302,-4.9401,-4.9344,-4.9373,-4.9384,-4.9389,-4.9395,-4.9327,-4.9436,-4.962,-4.9639,-4.9402,-4.9399,-4.9397,0,-4.8942,-4.9038,-4.9127,-4.915,-4.9196,-4.9237,-4.9257,-4.9291,-4.9326,-4.9371,-4.9394,-4.9446,-4.9475,-4.9515,-4.9514,-4.947,-4.9615,-4.9554,-4.962,-4.962,-4.9651,-4.9649,-4.9843,-4.967,-4.967,-4.9669,-4.9669,0,-4.9089,-4.9167,-4.9177,-4.9232,-4.9319,-4.9315,-4.94,-4.9417,-4.9448,-4.9504,-4.9481,-4.9534,-4.9529,-4.9582,-4.9581,-4.9664,-4.9677,-4.9681,-4.968,-4.9684,-4.9683,-4.9703,-4.9694,-4.9674,-4.9673,-4.9672,-4.9671,0,-4.9226,-4.9236,-4.9331,-4.9367,-4.9378,-4.9441,-4.9471,-4.9522,-4.9531,-4.9603,-4.9619,-4.9632,-4.9694,-4.9697,-4.9766,-4.9766,-4.9867,-4.9856,-4.9856,-4.9854,-4.992,-4.9914,-5.0133,-5.0161,-4.9969,-4.9971,-4.9973,0,-4.9319,-4.938,-4.9424,-4.9461,-4.9485,-4.9545,-4.9581,-4.958,-4.9618,-4.9666,-4.9712,-4.9771,-4.9819,-4.9918,-4.9933,-4.9986,-4.9976,-5.0049,-4.9984,-4.9986,-4.9978,-4.9975,-4.9981,-5.0062,-5.0064,-5.0066,-5.0067,0,-4.9484,-4.9487,-4.9541,-4.9598,-4.9643,-4.9687,-4.9728,-4.9759,-4.9762,-4.9806,-4.987,-4.9908,-4.998,-5.004,-5.0092,-5.0111,-5.009,-5.0088,-5.0106,-5.011,-5.0108,-5.0111,-4.9891,-5.0083,-5.0081,-5.008,-5.0079,-5.0079,-4.9602,-4.9655,-4.9696,-4.9757,-4.9789,-4.9828,-4.9878,-4.9895,-4.9949,-5.001,-5.0005,-5.0076,-5.0112,-5.0181,-5.0205,-5.0259,-5.0234,-5.026,-5.0266,-5.0273,-5.0281,-5.01,-5.0268,-5.0268,-5.0267,-5.0267,-5.0267,0,-4.9766,-4.9792,-4.9849,-4.9908,-4.9957,-4.9935,-4.998,-5.0021,-5.0085,-5.0121,-5.017,-5.0244,-5.0302,-5.0322,-5.0378,-5.0418,-5.0409,-5.0432,-5.043,-5.0434,-5.0299,-5.0279,-5.0438,-5.0438,-5.0438,-5.0438,-5.0438,-5.0438,-4.9858,-4.9947,-4.9954,-5.0058,-5.0082,-5.0153,-5.0181,-5.0216,-5.0246,-5.033,-5.038,-5.0393,-5.0423,-5.0482,-5.0534,-5.0538,-5.056,-5.0587,-5.0588,-5.0461,-5.0444,-5.0427,-5.0408,-5.0592,-5.0592,-5.0718,-5.0719,-5.072]}]]